Time,TemperatureF,DewpointF,PressureIn,WindDirection,WindDirectionDegrees,WindSpeedMPH,WindSpeedGustMPH,Humidity,HourlyPrecipIn,Conditions,Clouds,dailyrainin,SoftwareType,DateUTC
2013-12-15 00:01:00,70.9,69.0,29.95,South,170,2.0,4.0,92,0.00,,,0.00,weatherlink.com 1.10,2013-12-15 05:01:00,
2013-12-15 00:15:00,70.9,69.0,29.95,SSW,204,1.0,5.0,92,0.00,,,0.00,weatherlink.com 1.10,2013-12-15 05:15:00,
2013-12-15 00:30:00,71.0,69.0,29.94,SSW,205,1.0,8.0,93,0.00,,,0.00,weatherlink.com 1.10,2013-12-15 05:30:00,
2013-12-15 00:45:00,71.1,69.0,29.93,SW,215,4.0,6.0,93,0.00,,,0.00,weatherlink.com 1.10,2013-12-15 05:45:00,
2013-12-15 01:00:00,71.3,69.0,29.93,South,176,3.0,9.0,93,0.00,,,0.00,weatherlink.com 1.10,2013-12-15 06:00:00,
2013-12-15 01:15:00,71.5,69.0,29.93,SSE,149,0.0,10.0,93,0.00,,,0.00,weatherlink.com 1.10,2013-12-15 06:15:00,
2013-12-15 01:30:00,71.5,69.0,29.93,South,184,5.0,9.0,93,0.00,,,0.00,weatherlink.com 1.10,2013-12-15 06:30:00,
2013-12-15 01:45:00,71.4,69.0,29.92,SSE,153,1.0,7.0,93,0.00,,,0.00,weatherlink.com 1.10,2013-12-15 06:45:00,
2013-12-15 02:00:00,71.5,70.0,29.92,South,179,5.0,8.0,94,0.00,,,0.00,weatherlink.com 1.10,2013-12-15 07:00:00,
2013-12-15 02:15:00,71.6,70.0,29.92,SSE,165,4.0,10.0,94,0.00,,,0.00,weatherlink.com 1.10,2013-12-15 07:15:00,
2013-12-15 02:30:00,71.8,70.0,29.92,SSW,211,1.0,10.0,94,0.00,,,0.00,weatherlink.com 1.10,2013-12-15 07:30:00,
2013-12-15 02:45:00,71.9,70.0,29.92,SSW,205,1.0,10.0,94,0.00,,,0.00,weatherlink.com 1.10,2013-12-15 07:45:00,
2013-12-15 03:00:00,72.1,70.0,29.92,SSE,166,6.0,8.0,94,0.00,,,0.00,weatherlink.com 1.10,2013-12-15 08:00:00,
2013-12-15 03:15:00,72.3,71.0,29.92,SW,215,2.0,6.0,94,0.00,,,0.00,weatherlink.com 1.10,2013-12-15 08:15:00,
2013-12-15 03:31:00,72.5,70.0,29.91,SSW,201,0.0,5.0,93,0.00,,,0.00,weatherlink.com 1.10,2013-12-15 08:31:00,
2013-12-15 03:46:00,72.6,71.0,29.90,WSW,239,1.0,10.0,93,0.00,,,0.00,weatherlink.com 1.10,2013-12-15 08:46:00,
2013-12-15 04:01:00,72.4,70.0,29.90,SSW,207,1.0,7.0,93,0.00,,,0.00,weatherlink.com 1.10,2013-12-15 09:01:00,
2013-12-15 04:16:00,72.1,70.0,29.89,SSE,156,2.0,6.0,93,0.00,,,0.00,weatherlink.com 1.10,2013-12-15 09:16:00,
2013-12-15 04:31:00,71.9,70.0,29.90,SSW,198,1.0,6.0,94,0.00,,,0.00,weatherlink.com 1.10,2013-12-15 09:31:00,
2013-12-15 04:46:00,72.0,70.0,29.90,SE,144,2.0,4.0,94,0.00,,,0.00,weatherlink.com 1.10,2013-12-15 09:46:00,
2013-12-15 05:01:00,72.0,70.0,29.90,SSE,147,2.0,6.0,94,0.00,,,0.00,weatherlink.com 1.10,2013-12-15 10:01:00,
2013-12-15 05:16:00,71.9,70.0,29.90,SE,135,1.0,6.0,94,0.00,,,0.00,weatherlink.com 1.10,2013-12-15 10:16:00,
2013-12-15 05:31:00,72.2,70.0,29.90,SSE,147,4.0,7.0,94,0.00,,,0.00,weatherlink.com 1.10,2013-12-15 10:31:00,
2013-12-15 05:46:00,72.4,70.0,29.90,SSW,208,1.0,5.0,93,0.00,,,0.00,weatherlink.com 1.10,2013-12-15 10:46:00,
2013-12-15 06:01:00,72.6,71.0,29.90,SE,143,1.0,7.0,93,0.00,,,0.00,weatherlink.com 1.10,2013-12-15 11:01:00,
2013-12-15 06:16:00,72.6,71.0,29.91,SW,231,0.0,5.0,93,0.00,,,0.00,weatherlink.com 1.10,2013-12-15 11:16:00,
2013-12-15 06:31:00,72.5,70.0,29.90,SW,222,0.0,7.0,93,0.00,,,0.00,weatherlink.com 1.10,2013-12-15 11:31:00,
2013-12-15 06:46:00,72.6,71.0,29.91,WSW,248,0.0,3.0,93,0.00,,,0.00,weatherlink.com 1.10,2013-12-15 11:46:00,
2013-12-15 07:01:00,72.6,71.0,29.92,SW,233,0.0,3.0,94,0.02,,,0.02,weatherlink.com 1.10,2013-12-15 12:01:00,
2013-12-15 07:16:00,70.9,69.0,29.93,WNW,283,6.0,13.0,93,0.20,,,0.20,weatherlink.com 1.10,2013-12-15 12:16:00,
2013-12-15 07:31:00,69.6,68.0,29.94,West,280,3.0,7.0,95,0.20,,,0.20,weatherlink.com 1.10,2013-12-15 12:31:00,
2013-12-15 07:46:00,69.3,68.0,29.95,West,273,2.0,5.0,95,0.20,,,0.20,weatherlink.com 1.10,2013-12-15 12:46:00,
2013-12-15 08:01:00,69.3,68.0,29.96,WNW,291,1.0,6.0,96,0.18,,,0.20,weatherlink.com 1.10,2013-12-15 13:01:00,
2013-12-15 08:16:00,69.1,68.0,29.96,NNE,20,3.0,8.0,96,0.00,,,0.20,weatherlink.com 1.10,2013-12-15 13:16:00,
2013-12-15 08:31:00,68.4,67.0,29.97,NW,307,1.0,8.0,96,0.00,,,0.20,weatherlink.com 1.10,2013-12-15 13:31:00,
2013-12-15 08:46:00,68.5,67.0,29.98,NNW,342,3.0,4.0,96,0.00,,,0.20,weatherlink.com 1.10,2013-12-15 13:46:00,
2013-12-15 09:01:00,68.8,68.0,29.99,NW,314,2.0,4.0,96,0.00,,,0.20,weatherlink.com 1.10,2013-12-15 14:01:00,
2013-12-15 09:16:00,69.1,68.0,29.99,NW,326,2.0,6.0,96,0.00,,,0.20,weatherlink.com 1.10,2013-12-15 14:16:00,
2013-12-15 09:31:00,69.0,68.0,30.00,NW,318,4.0,7.0,96,0.00,,,0.20,weatherlink.com 1.10,2013-12-15 14:31:00,
2013-12-15 09:46:00,69.0,68.0,30.00,WNW,297,6.0,8.0,96,0.00,,,0.20,weatherlink.com 1.10,2013-12-15 14:46:00,
2013-12-15 10:01:00,67.2,66.0,30.02,NW,307,11.0,15.0,94,0.00,,,0.20,weatherlink.com 1.10,2013-12-15 15:01:00,
2013-12-15 10:16:00,64.4,63.0,30.03,North,358,7.0,11.0,95,0.00,,,0.20,weatherlink.com 1.10,2013-12-15 15:16:00,
2013-12-15 10:31:00,63.4,62.0,30.03,NE,34,5.0,10.0,95,0.00,,,0.20,weatherlink.com 1.10,2013-12-15 15:31:00,
2013-12-15 10:46:00,63.8,62.0,30.03,NNW,345,4.0,7.0,95,0.00,,,0.20,weatherlink.com 1.10,2013-12-15 15:46:00,
2013-12-15 11:01:00,64.6,62.0,30.02,NNW,341,6.0,9.0,92,0.00,,,0.20,weatherlink.com 1.10,2013-12-15 16:01:00,
2013-12-15 11:16:00,65.6,62.0,30.02,NNE,23,4.0,8.0,89,0.00,,,0.20,weatherlink.com 1.10,2013-12-15 16:16:00,
2013-12-15 11:31:00,66.4,62.0,30.02,NW,326,5.0,-999.0,85,-99.99,,,0.20,weatherlink.com 1.10,2013-12-15 16:31:00,
2013-12-15 11:47:00,67.4,61.0,30.01,NNE,23,4.0,13.0,80,0.00,,,0.20,weatherlink.com 1.10,2013-12-15 16:47:00,
2013-12-15 12:01:00,68.4,61.0,29.99,North,356,3.0,10.0,78,0.00,,,0.20,weatherlink.com 1.10,2013-12-15 17:01:00,
2013-12-15 12:16:00,69.7,63.0,29.99,WNW,302,6.0,8.0,78,0.00,,,0.20,weatherlink.com 1.10,2013-12-15 17:16:00,
2013-12-15 12:31:00,70.3,62.0,29.98,NW,314,4.0,8.0,76,0.00,,,0.20,weatherlink.com 1.10,2013-12-15 17:31:00,
2013-12-15 12:47:00,69.8,62.0,29.98,NNE,18,5.0,9.0,77,0.00,,,0.20,weatherlink.com 1.10,2013-12-15 17:47:00,
2013-12-15 13:02:00,70.7,63.0,29.97,NNE,16,3.0,7.0,77,0.00,,,0.20,weatherlink.com 1.10,2013-12-15 18:02:00,
2013-12-15 13:17:00,71.4,63.0,29.96,NE,39,6.0,6.0,74,0.00,,,0.20,weatherlink.com 1.10,2013-12-15 18:17:00,
2013-12-15 13:32:00,70.8,63.0,29.96,North,356,5.0,6.0,75,0.00,,,0.20,weatherlink.com 1.10,2013-12-15 18:32:00,
2013-12-15 13:47:00,71.4,63.0,29.97,NE,34,3.0,6.0,74,0.00,,,0.20,weatherlink.com 1.10,2013-12-15 18:47:00,
2013-12-15 14:02:00,71.5,63.0,29.96,NW,309,3.0,7.0,74,0.00,,,0.20,weatherlink.com 1.10,2013-12-15 19:02:00,
2013-12-15 14:17:00,71.4,63.0,29.96,NNW,337,2.0,5.0,74,0.00,,,0.20,weatherlink.com 1.10,2013-12-15 19:17:00,
2013-12-15 14:32:00,71.8,63.0,29.96,SSE,150,0.0,3.0,73,0.00,,,0.20,weatherlink.com 1.10,2013-12-15 19:32:00,
2013-12-15 14:47:00,71.9,63.0,29.97,NW,319,2.0,2.0,74,0.00,,,0.20,weatherlink.com 1.10,2013-12-15 19:47:00,
2013-12-15 15:02:00,71.5,63.0,29.96,NW,306,4.0,6.0,74,0.00,,,0.20,weatherlink.com 1.10,2013-12-15 20:02:00,
2013-12-15 15:17:00,71.9,63.0,29.96,NNW,333,5.0,8.0,73,0.00,,,0.20,weatherlink.com 1.10,2013-12-15 20:17:00,
2013-12-15 15:32:00,70.2,62.0,29.97,North,349,5.0,10.0,76,0.00,,,0.20,weatherlink.com 1.10,2013-12-15 20:32:00,
2013-12-15 15:47:00,69.1,62.0,29.97,NE,41,6.0,12.0,78,0.00,,,0.20,weatherlink.com 1.10,2013-12-15 20:47:00,
2013-12-15 16:02:00,68.1,60.0,29.98,WNW,293,4.0,10.0,76,0.00,,,0.20,weatherlink.com 1.10,2013-12-15 21:02:00,
2013-12-15 16:17:00,67.3,60.0,29.99,West,270,5.0,9.0,76,0.00,,,0.20,weatherlink.com 1.10,2013-12-15 21:17:00,
2013-12-15 16:32:00,67.1,60.0,29.99,WNW,297,4.0,11.0,77,0.00,,,0.20,weatherlink.com 1.10,2013-12-15 21:32:00,
2013-12-15 16:47:00,67.1,60.0,29.98,NW,311,2.0,7.0,77,0.00,,,0.20,weatherlink.com 1.10,2013-12-15 21:47:00,
2013-12-15 17:02:00,66.9,59.0,29.99,NNW,330,4.0,6.0,76,0.00,,,0.20,weatherlink.com 1.10,2013-12-15 22:02:00,
2013-12-15 17:17:00,66.5,59.0,30.00,NW,318,3.0,8.0,76,0.00,,,0.20,weatherlink.com 1.10,2013-12-15 22:17:00,
2013-12-15 17:32:00,66.4,59.0,30.01,WNW,300,2.0,8.0,76,0.00,,,0.20,weatherlink.com 1.10,2013-12-15 22:32:00,
2013-12-15 17:47:00,66.2,59.0,30.01,NNW,327,2.0,8.0,77,0.00,,,0.20,weatherlink.com 1.10,2013-12-15 22:47:00,
2013-12-15 18:02:00,66.1,59.0,30.02,NW,322,3.0,7.0,78,0.00,,,0.20,weatherlink.com 1.10,2013-12-15 23:02:00,
2013-12-15 18:17:00,65.9,59.0,30.02,North,5,4.0,8.0,78,0.00,,,0.20,weatherlink.com 1.10,2013-12-15 23:17:00,
2013-12-15 18:32:00,65.3,59.0,30.02,NW,316,4.0,4.0,79,0.00,,,0.20,weatherlink.com 1.10,2013-12-15 23:32:00,
2013-12-15 18:47:00,64.7,59.0,30.03,NW,315,1.0,4.0,81,0.00,,,0.20,weatherlink.com 1.10,2013-12-15 23:47:00,
2013-12-15 19:02:00,64.7,59.0,30.04,NW,311,4.0,6.0,81,0.00,,,0.20,weatherlink.com 1.10,2013-12-16 00:02:00,
2013-12-15 19:17:00,64.6,59.0,30.04,NNE,22,2.0,6.0,81,0.00,,,0.20,weatherlink.com 1.10,2013-12-16 00:17:00,
2013-12-15 19:32:00,64.2,59.0,30.04,NW,309,3.0,7.0,82,0.00,,,0.20,weatherlink.com 1.10,2013-12-16 00:32:00,
2013-12-15 19:47:00,63.9,59.0,30.05,NNW,340,6.0,9.0,84,0.00,,,0.20,weatherlink.com 1.10,2013-12-16 00:47:00,
2013-12-15 20:02:00,63.7,59.0,30.06,North,354,4.0,8.0,85,0.00,,,0.20,weatherlink.com 1.10,2013-12-16 01:02:00,
2013-12-15 20:17:00,63.0,58.0,30.07,NW,311,9.0,11.0,84,0.00,,,0.20,weatherlink.com 1.10,2013-12-16 01:17:00,
2013-12-15 20:32:00,62.1,58.0,30.07,NW,308,4.0,8.0,85,0.00,,,0.20,weatherlink.com 1.10,2013-12-16 01:32:00,
2013-12-15 20:47:00,61.8,58.0,30.08,NW,314,2.0,5.0,87,0.00,,,0.20,weatherlink.com 1.10,2013-12-16 01:47:00,
2013-12-15 21:02:00,62.0,58.0,30.09,North,354,2.0,4.0,87,0.00,,,0.20,weatherlink.com 1.10,2013-12-16 02:02:00,
2013-12-15 21:17:00,62.1,58.0,30.10,North,351,4.0,5.0,86,0.00,,,0.20,weatherlink.com 1.10,2013-12-16 02:17:00,
2013-12-15 21:32:00,61.6,57.0,30.10,NW,312,0.0,4.0,86,0.00,,,0.20,weatherlink.com 1.10,2013-12-16 02:32:00,
2013-12-15 21:47:00,60.9,57.0,30.11,WNW,284,0.0,4.0,88,0.00,,,0.20,weatherlink.com 1.10,2013-12-16 02:47:00,
2013-12-15 22:02:00,60.5,57.0,30.11,NW,307,2.0,4.0,89,0.00,,,0.20,weatherlink.com 1.10,2013-12-16 03:02:00,
2013-12-15 22:17:00,60.5,57.0,30.11,NNW,337,3.0,6.0,88,0.00,,,0.20,weatherlink.com 1.10,2013-12-16 03:17:00,
2013-12-15 22:32:00,60.3,57.0,30.11,WNW,295,1.0,4.0,88,0.00,,,0.20,weatherlink.com 1.10,2013-12-16 03:32:00,
2013-12-15 22:47:00,59.6,56.0,30.12,WNW,288,1.0,3.0,88,0.00,,,0.20,weatherlink.com 1.10,2013-12-16 03:47:00,
2013-12-15 23:02:00,59.3,56.0,30.11,NW,308,1.0,3.0,90,0.00,,,0.20,weatherlink.com 1.10,2013-12-16 04:02:00,
2013-12-15 23:17:00,59.5,56.0,30.12,NW,312,3.0,5.0,89,0.00,,,0.20,weatherlink.com 1.10,2013-12-16 04:17:00,
2013-12-15 23:32:00,59.3,56.0,30.12,NW,314,2.0,7.0,89,0.00,,,0.20,weatherlink.com 1.10,2013-12-16 04:32:00,
2013-12-15 23:47:00,58.6,55.0,30.12,NW,321,1.0,5.0,89,0.00,,,0.20,weatherlink.com 1.10,2013-12-16 04:47:00,